Total_Precipitation_Accumulation
0.06 0.09 0.14 0.14 0.18 0.22 0.25 0.28 0.32 0.43 0.35 0.37 0.53 0.84 0.97 0.97 0.98 1.12 1.32 1.33 1.33 1.45 1.84 2.31 2.82 3.28 4.00 4.98 6.00 6.46 6.34 5.78 5.31 4.95 4.66 4.42 4.06 3.74 3.60 3.30 2.99 2.96 2.94 2.98
0.09 0.11 0.09 0.10 0.12 0.16 0.22 0.30 0.32 0.40 0.33 0.39 0.58 0.95 1.14 1.22 1.26 1.18 1.24 1.36 1.29 1.45 1.90 2.41 2.99 3.36 3.70 4.30 5.14 5.55 5.27 4.72 4.12 3.94 3.88 3.86 3.78 3.35 3.12 3.06 3.07 2.75 2.78 2.91
0.09 0.10 0.08 0.08 0.10 0.17 0.22 0.27 0.32 0.38 0.35 0.48 0.66 1.29 1.54 1.47 1.21 0.99 0.90 1.06 1.10 1.20 1.69 2.41 2.98 3.25 3.51 3.80 3.89 4.05 4.00 3.59 3.31 3.26 3.26 3.30 3.51 3.29 2.99 2.90 2.86 2.63 2.55 2.59
0.09 0.07 0.06 0.07 0.11 0.15 0.22 0.19 0.20 0.27 0.42 0.68 0.78 1.70 1.99 1.64 1.35 1.08 0.91 0.92 1.01 1.14 1.54 2.28 2.61 2.75 2.80 2.89 2.79 2.89 3.01 2.96 2.98 2.94 2.98 2.86 2.74 2.75 2.64 2.63 2.60 2.59 2.47 2.40
0.10 0.06 0.07 0.08 0.11 0.15 0.20 0.16 0.18 0.28 0.48 0.70 0.95 1.53 2.08 1.80 1.55 1.17 0.87 0.85 1.01 1.05 1.25 1.57 1.71 1.87 1.94 1.99 2.05 2.31 2.69 2.87 2.82 2.78 2.96 2.96 2.62 2.48 2.41 2.43 2.61 2.60 2.47 2.34
0.10 0.08 0.07 0.08 0.11 0.14 0.17 0.21 0.27 0.46 0.72 1.22 1.22 1.40 1.92 1.76 1.46 1.02 0.82 0.78 0.72 0.77 0.93 1.12 1.23 1.35 1.43 1.48 1.60 1.87 2.32 2.59 2.59 2.62 2.67 2.61 2.57 2.55 2.50 2.48 2.54 2.43 2.35 2.44
0.15 0.13 0.12 0.12 0.14 0.17 0.16 0.24 0.56 1.06 1.55 1.70 1.13 1.30 1.71 1.35 0.99 0.72 0.60 0.61 0.64 0.77 0.84 0.98 1.18 1.28 1.24 1.20 1.31 1.50 1.83 2.02 2.06 2.19 2.36 2.46 2.53 2.51 2.35 2.30 2.29 2.20 2.01 2.13
0.20 0.21 0.16 0.13 0.12 0.15 0.18 0.22 0.45 0.79 0.95 1.11 1.06 1.59 1.73 1.03 0.76 0.64 0.57 0.57 0.69 0.76 0.74 0.83 0.98 1.03 1.03 1.09 1.16 1.30 1.46 1.57 1.68 1.79 2.00 2.19 2.24 2.22 2.18 2.35 2.22 2.06 1.83 1.76
0.12 0.12 0.10 0.09 0.10 0.13 0.18 0.20 0.23 0.33 0.43 0.82 1.25 1.56 1.44 0.95 0.72 0.62 0.57 0.54 0.68 0.70 0.63 0.66 0.77 0.84 0.88 1.03 1.12 1.16 1.27 1.39 1.52 1.62 1.90 2.07 2.08 2.05 2.09 2.20 2.11 1.90 1.90 1.77
0.08 0.07 0.09 0.09 0.10 0.13 0.16 0.18 0.20 0.28 0.48 0.83 1.29 1.76 1.69 1.25 0.91 0.78 0.61 0.52 0.59 0.59 0.56 0.62 0.67 0.76 0.76 0.78 0.93 1.05 1.13 1.33 1.53 1.63 1.70 1.71 1.88 1.87 1.86 1.81 1.77 1.83 1.86 1.81
0.08 0.07 0.08 0.10 0.12 0.16 0.16 0.15 0.17 0.22 0.30 0.61 1.14 1.46 1.08 0.92 0.75 0.72 0.69 0.62 0.60 0.63 0.65 0.64 0.71 0.73 0.70 0.69 0.84 1.00 1.12 1.27 1.37 1.38 1.41 1.52 1.62 1.62 1.60 1.59 1.57 1.68 1.73 1.78
0.07 0.09 0.10 0.13 0.15 0.14 0.13 0.12 0.15 0.21 0.25 0.34 0.70 0.93 0.61 0.62 0.61 0.68 0.72 0.73 0.77 0.85 0.83 0.81 0.85 0.82 0.80 0.81 0.87 1.00 1.04 1.09 1.14 1.18 1.25 1.33 1.47 1.51 1.52 1.55 1.66 1.77 1.79 1.79
0.06 0.09 0.13 0.27 0.32 0.22 0.14 0.12 0.15 0.16 0.19 0.27 0.59 0.87 0.59 0.59 0.67 0.72 0.72 0.80 0.83 0.80 0.86 1.03 1.07 0.94 0.88 0.87 0.91 0.97 0.98 1.01 1.03 1.10 1.15 1.22 1.37 1.55 1.65 1.70 1.75 1.87 1.95 1.93
0.07 0.08 0.09 0.24 0.32 0.30 0.24 0.18 0.18 0.20 0.23 0.27 0.40 0.66 0.61 0.58 0.67 0.83 0.79 0.77 0.84 0.85 0.88 1.05 1.19 0.99 0.86 0.82 0.85 0.90 0.90 0.87 0.90 1.09 1.24 1.33 1.54 1.75 1.84 1.86 1.93 1.95 1.99 1.98
0.09 0.09 0.08 0.09 0.16 0.23 0.25 0.21 0.20 0.17 0.17 0.25 0.35 0.52 0.66 0.76 0.80 0.84 0.87 0.86 0.79 0.84 0.88 0.93 1.04 1.04 0.93 0.88 0.87 0.91 1.00 1.04 1.07 1.28 1.48 1.68 1.87 1.93 1.98 2.04 2.06 2.12 2.15 2.03
0.13 0.12 0.11 0.12 0.18 0.20 0.20 0.23 0.19 0.15 0.14 0.20 0.34 0.55 0.68 0.69 0.81 0.87 0.83 0.81 0.82 0.88 0.92 1.05 1.10 1.09 1.11 1.07 1.07 1.14 1.21 1.32 1.48 1.69 1.84 1.92 1.99 2.04 1.99 2.00 2.02 2.16 2.21 2.26
0.21 0.21 0.22 0.22 0.24 0.27 0.30 0.27 0.22 0.19 0.20 0.27 0.38 0.57 0.69 0.77 0.92 1.05 1.06 0.95 0.95 1.06 1.10 1.21 1.26 1.24 1.29 1.30 1.38 1.52 1.50 1.59 1.76 1.94 2.11 2.13 2.10 2.10 2.06 2.10 2.12 2.12 2.25 2.38
0.30 0.33 0.31 0.30 0.35 0.52 0.43 0.31 0.27 0.27 0.28 0.33 0.45 0.61 0.73 0.86 0.93 1.14 1.29 1.23 1.07 1.03 1.10 1.23 1.31 1.31 1.28 1.33 1.45 1.70 1.80 1.81 1.96 2.08 2.19 2.26 2.30 2.37 2.43 2.51 2.50 2.55 2.61 2.66
0.31 0.43 0.45 0.44 0.54 0.59 0.51 0.40 0.36 0.39 0.51 0.51 0.63 0.88 1.00 1.03 1.23 1.47 1.47 1.35 1.24 1.24 1.21 1.36 1.36 1.32 1.35 1.54 1.63 1.70 1.82 1.85 2.03 2.22 2.38 2.46 2.53 2.59 2.62 2.64 2.77 2.92 3.08 3.15
0.38 0.42 0.54 0.52 0.65 0.76 0.73 0.53 0.48 0.63 1.19 0.97 0.94 1.02 1.03 1.16 1.67 1.75 1.38 1.22 1.22 1.23 1.33 1.48 1.53 1.49 1.58 1.86 1.93 2.02 2.11 2.16 2.24 2.34 2.51 2.71 2.87 2.94 2.91 2.98 3.18 3.37 3.54 3.58
0.65 0.67 0.63 0.62 0.73 0.83 0.73 0.59 0.67 1.28 1.73 1.38 1.26 1.22 1.25 1.47 1.58 1.59 1.44 1.26 1.19 1.22 1.31 1.46 1.54 1.56 1.63 1.85 2.05 2.34 2.47 2.52 2.53 2.57 2.70 2.87 3.03 3.18 3.22 3.34 3.45 3.64 3.80 3.79
0.94 1.01 0.99 0.97 1.15 1.21 0.77 0.77 1.17 1.53 1.34 1.45 1.61 1.64 1.58 1.60 1.42 1.38 1.42 1.44 1.39 1.36 1.39 1.46 1.60 1.68 1.77 1.88 2.14 2.41 2.61 2.75 2.83 2.82 2.98 3.08 3.14 3.00 2.97 3.26 3.49 3.73 3.96 3.92
1.19 1.22 1.27 1.33 1.48 1.30 1.01 1.10 1.18 1.18 1.31 1.43 1.54 1.69 1.75 1.72 1.72 1.61 1.67 1.64 1.56 1.49 1.44 1.44 1.51 1.64 1.73 1.80 2.02 2.43 2.59 2.70 2.80 2.89 2.95 3.09 3.12 3.11 3.18 3.41 3.60 3.83 3.94 3.88
1.28 1.24 1.41 1.56 1.59 1.44 1.34 1.36 1.40 1.42 1.45 1.46 1.51 1.63 1.71 1.74 1.83 1.77 1.72 1.56 1.44 1.37 1.40 1.49 1.57 1.69 1.77 1.70 1.85 2.05 2.26 2.42 2.51 2.58 2.60 2.60 2.72 2.88 3.13 3.44 3.53 3.61 3.65 3.68
1.43 1.40 1.59 1.95 2.04 1.96 1.81 1.80 1.78 1.68 1.72 1.76 1.71 1.69 1.73 1.65 1.69 1.70 1.55 1.40 1.35 1.39 1.35 1.43 1.61 1.62 1.67 1.75 1.76 1.81 1.86 2.06 2.23 2.27 2.28 2.37 2.49 2.68 2.90 3.12 3.27 3.23 3.26 3.48
1.77 1.69 1.74 2.07 2.11 2.29 2.25 2.03 1.96 1.81 1.85 1.87 1.81 1.72 1.67 1.65 1.67 1.63 1.52 1.44 1.40 1.40 1.42 1.44 1.52 1.54 1.57 1.69 1.77 1.75 1.86 2.03 2.08 2.02 2.03 2.06 2.13 2.31 2.49 2.64 2.74 2.80 2.59 2.66